User: anonymous   Login
Location: Cherry Springs State Park
(41.6616°N, 77.8240°W)
Time: 04:22:36
(UTC-04:00)
Language:

Cosmos 1437 - Orbit

View from above orbital plane
View from above orbital plane
View from above satellite
View from above satellite

Ground track
Ground track

The orbit data is extracted from the following two-line orbital elements,

1 13770U 83003A   17266.82685615  .00006652  00000-0  10762-3 0  9993
2 13770  81.1597  27.2611 0005531 269.7451  90.3163 15.52610949901822
Epoch (UTC): 23 September 2017 19:50:40
Eccentricity: 0.0005531
inclination: 81.1597°
perigee height: 405 km
apogee height: 413 km
right ascension of ascending node: 27.2611°
argument of perigee: 269.7451°
revolutions per day: 15.52610949
mean anomaly at epoch: 90.3163°
orbit number at epoch: 90182

The dashed part of the orbit path shows where the satellite is in the earth's shadow,  

DLR